EW9808 Weather Reports


time (UTC)temp
F
wind
direction
speed
knots
gust
knots
rain 1hr
in
rain 24hr
in
rain mn
in
humidity
%
barometer
mb
20260504223004 70 286 7.0 18.2 0.00 0.00 0.00 33 1005.1
20260504220059 71 315 11.3 21.7 0.00 0.00 0.00 32 1005.1
20260504214557 71 262 8.7 16.5 0.00 0.00 0.00 32 1005.1
20260504213056 70 288 10.4 23.5 0.00 0.00 0.00 32 1005.2
20260504211553 70 265 10.4 22.6 0.00 0.00 0.00 32 1005.2
20260504210105 71 306 13.9 25.2 0.00 0.00 0.00 31 1005.2
20260504204556 71 340 9.6 23.5 0.00 0.00 0.00 31 1005.2
20260504203101 71 247 14.8 22.6 0.00 0.00 0.00 32 1005.2
20260504201540 71 323 5.2 21.7 0.00 0.00 0.00 32 1005.2
20260504200036 70 279 11.3 20.0 0.00 0.00 0.00 32 1005.2
20260504194536 69 304 11.3 24.3 0.00 0.00 0.00 32 1005.3
20260504193035 70 242 9.6 21.7 0.00 0.00 0.00 31 1005.4
20260504191529 70 296 12.2 26.1 0.00 0.00 0.00 30 1005.3
20260504190024 69 283 12.2 20.9 0.00 0.00 0.00 30 1005.5
20260504184519 69 257 15.6 23.5 0.00 0.00 0.00 30 1005.8
20260504183015 69 286 10.4 22.6 0.00 0.00 0.00 30 1005.9
20260504181512 69 309 10.4 26.1 0.00 0.00 0.00 31 1005.9
20260504180040 68 242 13.9 24.3 0.00 0.00 0.00 32 1006.0
20260504174536 68 286 18.2 29.5 0.00 0.00 0.00 30 1006.1
20260504173029 68 314 14.8 29.5 0.00 0.00 0.00 32 1006.3
20260504171526 67 263 13.9 26.9 0.00 0.00 0.00 32 1006.5
20260504081525 46 269 4.3 7.0 0.00 0.01 0.01 52 1009.5
20260504070103 45 255 4.3 7.0 0.00 0.01 0.01 52 1009.3
20260504044520 43 286 4.3 7.0 0.00 0.01 0.01 51 1009.4
20260504043016 43 280 4.3 7.8 0.00 0.01 0.01 50 1009.4
20260504041511 42 274 4.3 7.8 0.00 0.01 0.01 48 1009.3
20260504040007 43 257 4.3 7.8 0.00 0.01 0.01 50 1009.3
20260504034501 43 266 4.3 7.0 0.00 0.01 0.01 49 1009.2
20260504033059 43 251 4.3 6.1 0.00 0.01 0.01 51 1009.1
20260504031558 44 267 3.5 6.1 0.00 0.01 0.01 52 1009.1
20260504030049 45 261 3.5 6.1 0.00 0.01 0.01 52 1009.0
20260504024541 46 238 3.5 5.2 0.00 0.01 0.01 51 1008.9
20260504023036 46 260 3.5 4.3 0.00 0.01 0.01 50 1008.9
20260504021531 46 277 3.5 4.3 0.00 0.01 0.01 50 1008.9
20260504020030 47 274 3.5 5.2 0.00 0.01 0.01 49 1008.8
20260504014600 46 278 3.5 5.2 0.00 0.01 0.01 50 1008.7
20260504013053 46 261 2.6 5.2 0.00 0.01 0.01 51 1008.7
20260504011542 47 260 3.5 4.3 0.00 0.01 0.01 49 1008.5
20260504010038 48 290 2.6 4.3 0.00 0.01 0.01 48 1008.3
20260504004533 49 279 1.7 3.5 0.00 0.01 0.01 47 1008.1
20260504003029 49 274 2.6 4.3 0.00 0.01 0.01 46 1008.0
20260504001602 49 298 0.9 3.5 0.00 0.01 0.01 46 1007.7
20260504000052 49 346 1.7 6.1 0.00 0.01 0.01 45 1007.7
20260503234517 50 355 3.5 7.0 0.00 0.01 0.01 44 1007.6
20260503233019 51 313 3.5 8.7 0.00 0.01 0.01 44 1007.3
20260503231505 51 13 3.5 10.4 0.00 0.01 0.01 43 1007.2
20260503230100 51 41 6.1 16.5 0.00 0.01 0.01 42 1007.0
20260503224556 51 9 6.1 19.1 0.00 0.01 0.01 42 1006.8